Ahmedabad, India

2:39 PM IST on September 24, 2017 (GMT +0530)
Ahmedabad

Weather History for VAAH - January, 2014

Change the Weather History Date:

Monday, January 13, 2014

  Actual Average Record
Temperature  
Mean Temperature 67 °F -  
Max Temperature 79 °F 81 °F 89 °F (2011)
Min Temperature 55 °F 55 °F 48 °F (2000)
Cooling Degree Days 2    
Growing Degree Days 17 (Base 50)    
Moisture  
Dew Point 47 °F    
Average Humidity 49    
Maximum Humidity 60    
Minimum Humidity 30    
Precipitation  
Precipitation 0.00 in 0.00 in - ()
Sea Level Pressure  
Sea Level Pressure 30.01 in    
Wind  
Wind Speed 5 mph ()    
Max Wind Speed 10 mph    
Max Gust Speed -    
Visibility 2.4 miles    
Events      
Averages and records for this station are not official NWS values.
T = Trace of Precipitation, MM = Missing Value Source: Averaged Metar Reports

Daily Weather History Graph

Daily Weather History Graph

Search for Another Location

Airport or City:

Trip Planner

Search our weather history database for the weather conditions in past years. The results will help you decide how hot, cold, wet, or windy it might be!

Date:

Astronomy

Jan. 13, 2014 Rise Set
Actual Time 7:22 AM IST 6:13 PM IST
Civil Twilight 6:58 AM IST 6:37 PM IST
Nautical Twilight 6:30 AM IST 7:05 PM IST
Astronomical Twilight 6:03 AM IST 7:32 PM IST
Moon 4:05 PM IST (1/13) 4:51 AM IST (1/13)
Length of Visible Light 11h 39m
Length of Day
10h 50m
Waxing Gibbous, 92% of the Moon is Illuminated
Jan 13
Waxing Gibbous
Jan 16
Full
Jan 24
Last Quarter
Jan 31
New
Feb 7
First Quarter

Hourly Weather History & Observations

Time (IST) Temp. Dew Point Humidity Pressure Visibility Wind Dir Wind Speed Gust Speed Precip Events Conditions
12:10 AM 57.2 °F 41.0 °F 55% 30.04 in 2.5 mi NE 5.8 mph - N/A   Smoke
12:40 AM 57.2 °F 41.0 °F 55% 30.04 in 2.5 mi NE 4.6 mph - N/A   Smoke
1:40 AM 55.4 °F 41.0 °F 58% 30.04 in 2.5 mi NE 6.9 mph - N/A   Smoke
2:30 AM 59 °F 43 °F 44% 30.05 in 2 mi NE 3.5 mph - -  
2:40 AM 57.2 °F 39.2 °F 51% 30.04 in 2.5 mi NE 5.8 mph - N/A   Smoke
3:10 AM 57.2 °F 39.2 °F 51% 30.01 in 2.5 mi ENE 6.9 mph - N/A   Smoke
3:40 AM 57.2 °F 39.2 °F 51% 30.01 in 2.5 mi NE 5.8 mph - N/A   Smoke
4:10 AM 57.2 °F 39.2 °F 51% 30.01 in 2.5 mi ENE 8.1 mph - N/A   Smoke
4:40 AM 57.2 °F 39.2 °F 51% 30.01 in 2.5 mi East 8.1 mph - N/A   Smoke
5:10 AM 57.2 °F 39.2 °F 51% 30.01 in 2.5 mi East 8.1 mph - N/A   Smoke
5:30 AM 59 °F 43 °F 43% 30.03 in 2 mi ENE 9.2 mph - -  
5:40 AM 55.4 °F 39.2 °F 54% 30.01 in 2.5 mi ENE 8.1 mph - N/A   Smoke
7:40 AM 55.4 °F 41.0 °F 58% 30.06 in 1.9 mi NE 6.9 mph - N/A   Haze
8:10 AM 55.4 °F 41.0 °F 58% 30.06 in 1.6 mi NE 5.8 mph - N/A   Haze
8:30 AM 58 °F 44 °F 49% 30.08 in 2 mi NNE 5.8 mph - -   Clear
8:40 AM 57.2 °F 41.0 °F 55% 30.06 in 1.6 mi NE 6.9 mph - N/A   Haze
9:10 AM 59.0 °F 41.0 °F 51% 30.09 in 1.6 mi ENE 9.2 mph - N/A   Haze
10:10 AM 64.4 °F 42.8 °F 45% 30.09 in 2.2 mi ENE 8.1 mph - N/A   Smoke
10:40 AM 66.2 °F 44.6 °F 46% 30.09 in 2.5 mi ENE 8.1 mph - N/A   Smoke
11:10 AM 68.0 °F 44.6 °F 43% 30.09 in 2.5 mi NE 10.4 mph - N/A   Smoke
11:30 AM 71 °F 47 °F 32% 30.09 in 2 mi NE 5.8 mph - -  
12:10 PM 71.6 °F 48.2 °F 43% 30.04 in 2.5 mi ENE 8.1 mph - N/A   Smoke
1:40 PM 75.2 °F 50.0 °F 41% 29.98 in 3.1 mi ENE 8.1 mph - N/A   Smoke
2:10 PM 77.0 °F 51.8 °F 41% 29.95 in 3.1 mi ENE 5.8 mph - N/A   Smoke
2:30 PM 77 °F 52 °F 30% 30.00 in 2 mi NNW 3.5 mph - -   Clear
2:40 PM 77.0 °F 51.8 °F 41% 29.95 in 3.1 mi NE 5.8 mph - N/A   Smoke
3:10 PM 77.0 °F 51.8 °F 41% 29.95 in 3.1 mi NNE 5.8 mph - N/A   Smoke
3:40 PM 77.0 °F 51.8 °F 41% 29.95 in 3.1 mi NNE 5.8 mph - N/A   Smoke
4:10 PM 77.0 °F 51.8 °F 41% 29.92 in 3.1 mi North 5.8 mph - N/A   Smoke
4:40 PM 77.0 °F 51.8 °F 41% 29.92 in 3.1 mi North 5.8 mph - N/A   Smoke
5:10 PM 77.0 °F 51.8 °F 41% 29.92 in 3.1 mi NNE 4.6 mph - N/A   Smoke
5:30 PM 76 °F 56 °F 39% 29.92 in 2 mi Calm Calm - -   Clear
5:40 PM 75.2 °F 53.6 °F 47% 29.95 in 3.1 mi North 3.5 mph - N/A   Smoke
6:40 PM 69.8 °F 53.6 °F 56% 29.95 in 2.5 mi NNE 3.5 mph - N/A   Smoke
7:10 PM 68.0 °F 53.6 °F 60% 29.95 in 2.5 mi NNE 3.5 mph - N/A   Smoke
7:40 PM 68.0 °F 53.6 °F 60% 29.98 in 2.5 mi NNE 3.5 mph - N/A   Smoke
8:10 PM 66.2 °F 51.8 °F 60% 29.98 in 2.5 mi NNE 3.5 mph - N/A   Smoke
8:30 PM 67 °F 54 °F 53% 30.00 in 1 mi North 3.5 mph - -   Haze
8:40 PM 66.2 °F 50.0 °F 56% 30.01 in 2.5 mi North 3.5 mph - N/A   Smoke
9:40 PM 62.6 °F 48.2 °F 59% 30.01 in 2.5 mi North 4.6 mph - N/A   Smoke
10:10 PM 62.6 °F 46.4 °F 55% 30.01 in 2.5 mi North 3.5 mph - N/A   Smoke
10:40 PM 62.6 °F 46.4 °F 55% 29.98 in 2.5 mi North 2.3 mph - N/A   Smoke
11:10 PM 60.8 °F 46.4 °F 59% 29.98 in 2.5 mi North 2.3 mph - N/A   Smoke
11:30 PM 63 °F 50 °F 52% 29.99 in 2 mi Calm Calm - -   Haze
11:40 PM 60.8 °F 46.4 °F 59% 29.98 in 2.5 mi Variable 2.3 mph - N/A   Smoke